Wind_Speed
49 49 48 47 47 46 45 45 44 42 41 39 39 38 38 37 37 36 36 36 35 34 33 32 31 30 28 27 25 25 24 24 24 24 24 25 25 25 25 25 24 24 23 23 22 21 21 20 20 21 21 22 23 23 24 25 25 25 25 26 26 26 26 26 26 26 26 26 26
49 50 49 48 47 45 44 44 43 42 41 40 39 38 38 37 37 36 36 35 35 34 32 31 30 29 27 26 25 24 24 24 24 24 25 25 25 25 25 24 24 24 23 22 22 21 21 20 20 20 21 22 23 24 24 25 25 25 25 26 25 25 25 25 26 26 25 25 25
50 50 49 48 47 45 44 43 44 43 42 41 40 39 38 37 37 36 36 35 34 33 32 31 29 28 27 25 24 24 24 24 24 24 25 25 25 24 24 24 24 23 23 22 21 21 20 20 20 20 21 22 23 24 24 25 24 24 25 25 25 24 24 24 25 24 24 23 22
50 50 49 49 48 48 47 46 45 45 44 42 41 39 38 38 37 36 35 34 33 33 32 31 29 28 26 25 25 25 25 24 24 24 24 24 24 24 24 24 23 23 22 22 21 21 20 19 20 20 21 22 23 23 24 24 23 23 24 24 24 24 24 24 24 23 22 21 21
50 50 51 51 51 51 50 49 47 46 45 43 41 40 39 38 37 36 35 34 34 33 32 30 29 28 26 26 25 25 25 25 24 24 24 24 24 24 23 23 23 22 22 21 21 20 20 19 20 20 21 22 22 23 23 23 23 23 23 23 23 23 23 23 23 22 21 21 21
50 51 52 52 52 52 51 50 48 47 45 43 41 40 39 38 37 36 36 35 34 33 32 30 29 28 27 26 26 25 25 25 25 25 24 24 24 23 23 23 23 22 22 21 21 20 19 19 20 20 21 22 22 23 23 22 22 22 23 23 23 22 22 23 23 22 22 23 23
50 51 52 52 52 51 50 50 48 47 45 43 42 41 40 39 38 37 36 35 35 33 32 31 30 29 28 27 27 26 26 25 25 25 25 24 24 23 23 23 23 22 22 21 20 20 19 19 20 21 21 22 22 23 23 22 22 22 22 23 23 23 23 23 23 23 23 24 25
49 50 51 52 52 51 51 50 49 47 45 44 43 42 41 39 38 37 36 35 35 34 33 32 31 30 29 28 28 27 27 26 25 25 24 24 23 23 23 23 23 23 22 21 20 20 20 20 20 21 21 22 22 23 22 22 21 22 22 23 23 23 24 24 24 24 24 25 26
46 48 50 51 51 51 51 50 49 48 46 45 44 43 41 40 38 37 36 36 35 35 34 32 31 30 29 28 28 27 27 26 26 25 25 24 24 23 23 23 23 23 22 21 21 20 20 20 21 21 22 22 22 22 22 21 21 22 23 24 24 25 25 25 25 25 26 26 27
45 46 48 49 50 51 51 50 49 48 47 46 45 43 41 40 38 37 36 36 35 34 34 33 31 30 29 29 28 28 27 27 26 25 25 24 24 24 24 24 24 23 22 21 21 20 20 20 21 22 22 22 22 22 22 21 22 23 24 24 25 25 26 26 26 26 26 27 28
45 46 46 47 49 49 49 48 48 48 47 46 45 43 42 40 39 38 36 35 35 35 34 33 32 31 30 29 29 28 27 27 26 26 25 24 24 24 24 24 24 23 23 22 21 20 20 21 22 22 22 22 22 22 22 22 22 23 24 25 25 26 27 27 27 27 27 27 28
45 45 45 46 47 48 47 47 47 47 46 46 45 44 42 41 39 38 37 36 35 35 34 33 32 31 30 30 29 28 28 27 26 26 25 25 25 24 24 24 24 23 23 22 21 21 21 22 22 23 23 22 22 22 22 22 22 23 24 25 25 26 28 28 28 27 27 27 27
44 43 44 44 45 46 46 46 47 46 46 46 45 44 43 42 40 38 37 36 36 35 34 33 32 31 30 30 29 28 28 27 27 26 26 25 25 24 24 24 24 24 23 22 21 21 22 22 22 23 23 23 22 22 22 22 23 24 25 26 26 27 28 29 28 28 27 27 28
42 42 43 43 43 44 45 46 46 46 46 46 46 45 44 42 41 39 38 37 36 35 34 34 33 32 31 30 29 28 28 27 27 26 26 25 25 25 25 25 24 24 23 23 22 22 22 22 23 23 23 23 23 23 22 22 23 24 25 26 27 28 28 29 28 28 28 28 29
41 42 42 42 43 43 44 45 45 45 45 45 46 45 44 43 42 40 39 38 37 36 35 34 33 32 31 30 29 28 28 27 27 26 26 26 25 25 25 25 25 24 24 23 23 23 23 23 23 23 23 23 23 23 23 23 23 24 25 26 27 28 29 29 28 28 28 29 29
40 41 42 42 42 43 44 44 44 44 45 45 46 45 44 43 43 41 40 39 37 36 35 35 34 33 32 30 29 28 28 27 27 27 27 26 26 26 26 26 25 25 24 23 23 23 23 23 23 22 23 23 23 23 23 23 24 25 26 26 27 28 28 28 28 28 29 29 29
40 40 41 41 42 43 44 44 44 44 44 45 45 45 45 44 43 42 41 40 38 37 36 35 34 33 32 31 30 29 28 28 28 28 28 27 27 27 26 26 26 25 24 24 23 23 23 23 23 22 23 23 23 23 23 24 24 25 26 27 27 28 28 28 28 28 29 29 30
39 40 41 42 43 44 45 45 45 45 45 45 45 45 45 45 44 43 42 41 40 38 37 36 35 34 32 31 31 30 29 29 29 29 28 28 27 27 27 26 25 25 24 24 24 24 24 23 23 23 23 23 23 23 24 24 25 26 26 27 27 27 27 27 27 28 29 29 30
39 40 41 42 43 45 45 46 46 46 46 46 45 45 45 45 44 43 42 41 40 39 37 36 35 34 33 32 31 30 30 30 29 29 29 28 27 27 27 26 25 24 24 24 24 24 24 24 23 23 23 23 23 23 24 24 25 26 26 26 27 27 27 27 28 28 29 29 30
39 40 41 43 44 45 45 46 46 46 45 45 45 45 45 45 44 43 42 42 41 39 38 36 35 34 33 32 31 31 30 30 29 29 28 28 27 27 27 26 25 24 24 24 24 24 24 24 23 23 23 23 23 24 24 24 25 25 26 26 26 27 27 28 28 29 29 30 30
40 41 42 44 44 45 45 45 45 45 44 44 44 44 44 44 44 43 43 42 41 39 38 36 35 35 34 33 32 31 30 30 29 28 28 28 27 27 26 25 25 24 24 24 25 25 25 24 24 23 23 23 24 24 24 25 25 25 25 26 26 27 27 28 29 29 30 30 28
40 41 42 43 43 44 44 44 43 43 43 43 43 43 43 43 43 43 42 42 40 39 38 37 35 35 34 33 32 31 30 29 29 28 28 28 27 27 26 25 25 25 25 25 25 25 25 25 24 24 24 24 24 24 24 24 24 24 25 26 26 27 28 29 29 29 29 28 26
40 40 41 41 42 42 42 42 41 41 41 41 41 41 41 42 42 42 41 40 39 38 37 36 35 34 34 33 32 30 29 28 28 28 28 28 27 27 26 25 25 25 26 26 26 26 25 25 25 25 24 24 24 24 24 24 24 24 25 26 27 28 28 28 28 28 28 26 25
39 39 39 39 40 40 40 40 40 40 40 40 40 40 40 41 41 40 40 39 39 38 37 36 35 34 33 32 31 30 29 28 28 28 28 28 27 27 26 26 26 26 27 27 26 26 26 26 26 25 25 25 24 24 24 24 24 25 25 26 27 27 28 28 28 28 27 25 24
37 37 38 38 38 39 39 39 39 39 39 39 40 39 39 40 39 39 39 39 38 38 37 36 35 34 33 32 30 29 29 28 28 28 28 28 27 27 26 26 27 27 27 27 27 26 25 25 24 23 23 23 23 24 24 24 25 25 25 26 26 27 28 29 29 28 26 24 23
35 36 36 37 37 37 38 38 38 39 39 39 38 38 38 39 38 38 38 38 38 37 36 35 34 33 32 31 30 29 29 29 28 28 28 28 27 27 27 27 27 28 28 28 27 26 25 23 21 21 21 22 23 23 24 24 25 25 25 25 26 27 29 30 30 28 25 23 22
34 34 35 35 35 36 36 37 37 37 37 37 37 37 38 38 37 37 37 37 37 37 36 35 34 33 32 31 30 30 30 29 29 29 28 28 28 28 27 28 28 28 28 28 27 25 24 22 21 21 21 22 23 24 25 25 26 26 26 26 27 28 30 30 29 26 23 22 21
33 33 34 34 34 35 35 36 35 35 36 36 37 37 37 37 37 37 37 37 36 36 35 35 34 33 31 30 30 30 30 30 29 29 28 28 28 28 28 28 28 28 28 27 26 25 23 22 21 21 22 22 23 24 25 25 26 26 27 27 27 28 29 28 26 24 22 22 22
33 33 33 33 33 34 34 34 34 35 36 36 36 36 36 36 36 36 36 36 36 35 35 34 34 32 31 30 31 31 30 30 29 29 29 28 28 28 28 28 28 28 28 27 26 24 22 22 21 22 22 22 23 24 24 25 26 26 26 27 27 27 27 25 24 24 24 24 23
32 32 32 32 33 33 34 34 35 35 35 35 35 35 35 35 36 36 36 36 36 36 36 35 33 32 31 32 31 31 30 30 29 29 29 29 29 29 28 28 28 28 27 27 26 24 22 22 22 22 22 21 22 23 24 25 26 26 26 26 26 25 24 24 24 25 25 25 24
31 31 32 32 33 33 33 34 34 34 34 34 34 34 35 35 35 36 36 36 36 36 35 34 33 32 33 33 32 31 31 30 29 29 29 29 29 28 28 28 28 28 27 27 26 24 22 22 22 22 21 21 21 22 23 25 25 25 25 25 25 24 23 23 24 26 26 25 24
30 30 31 31 32 32 33 33 32 33 33 33 33 34 34 35 36 37 37 37 36 35 33 33 32 33 33 32 32 31 31 30 30 29 29 29 28 28 27 27 27 27 27 27 26 24 22 22 22 22 21 21 21 22 23 24 25 25 25 25 24 23 23 23 25 26 26 25 23
30 30 31 31 31 32 31 31 31 32 32 33 33 34 35 35 36 36 36 36 35 34 33 33 33 33 33 33 32 32 31 31 30 29 29 28 27 27 27 27 27 27 27 27 26 24 22 21 21 21 21 21 21 21 23 23 24 25 25 25 24 23 23 24 25 26 26 24 23
30 30 30 31 31 31 31 31 31 31 32 33 34 34 35 35 35 35 35 35 34 34 34 34 34 34 34 34 33 32 31 31 30 29 28 28 27 27 27 27 27 27 27 26 25 23 21 21 21 20 20 20 21 22 22 23 24 24 24 24 23 23 22 23 25 25 24 22 22
30 30 31 31 31 31 30 31 31 32 32 33 34 35 36 36 36 36 36 36 34 33 33 33 33 33 33 32 32 32 31 30 29 29 28 27 27 27 27 28 28 27 27 26 24 22 21 21 20 20 20 20 20 21 22 23 23 24 24 23 23 22 22 23 24 24 22 21 21
30 31 31 31 31 31 31 31 32 32 33 34 35 36 36 37 37 37 37 35 33 32 32 32 32 31 31 31 31 31 31 30 29 28 28 27 27 27 27 28 28 27 27 26 24 23 22 21 20 20 19 19 20 21 21 22 23 23 23 23 22 22 22 23 23 22 20 20 20
31 32 32 32 32 32 32 32 32 33 34 35 37 37 37 38 37 37 36 34 32 32 32 32 31 31 31 31 32 32 32 30 29 28 27 27 27 27 27 27 27 27 27 26 24 23 22 20 20 19 19 19 20 20 21 22 22 23 23 23 22 22 22 22 21 21 20 20 20
32 33 33 33 33 33 33 33 34 35 36 37 38 38 38 38 37 36 36 34 33 33 32 32 32 32 33 33 33 32 32 30 28 27 27 27 27 27 27 27 27 27 26 25 24 23 22 20 20 19 18 18 19 20 20 21 21 22 22 22 22 22 22 21 21 20 20 21 20
33 34 34 34 34 34 34 35 35 37 37 37 37 37 37 36 36 36 35 34 34 33 33 32 33 33 34 33 32 31 31 29 28 27 27 27 27 26 26 26 27 27 26 25 24 23 22 20 19 19 18 18 19 19 20 20 21 22 22 22 22 23 22 22 21 21 21 22 21
35 36 36 36 36 36 35 36 37 37 37 36 35 35 35 35 34 34 33 33 33 33 33 32 33 33 33 32 30 30 29 29 28 27 27 27 26 25 25 26 27 27 26 25 24 22 21 19 19 18 18 18 19 19 20 20 21 22 22 22 22 23 23 22 21 21 22 22 21
36 37 37 38 38 37 37 36 37 36 36 35 34 34 33 33 32 31 30 30 31 31 31 31 31 32 31 30 29 29 28 28 27 27 27 26 26 25 25 25 26 26 26 25 23 22 20 19 18 18 17 17 18 19 19 20 20 21 22 22 22 23 22 21 20 21 22 22 21
Wind_Direction
221 221 221 222 223 224 225 227 228 229 229 229 230 230 230 230 230 231 232 232 232 233 235 236 237 237 238 237 237 236 237 238 238 238 238 239 239 240 241 242 243 244 245 246 247 249 251 253 256 259 262 265 268 270 272 274 276 277 278 278 279 279 279 278 277 277 276 274 273
220 221 222 222 223 224 225 227 228 228 229 230 231 232 233 232 232 232 233 233 234 235 236 236 237 237 237 236 235 235 235 235 235 236 237 238 239 240 240 241 242 244 245 246 248 250 252 255 257 261 263 266 269 271 273 275 277 278 279 279 279 279 278 277 276 276 276 275 274
221 221 221 222 222 223 224 225 227 228 229 230 232 233 234 234 234 234 234 235 235 235 236 236 236 236 236 235 234 233 233 234 234 235 236 237 238 239 240 242 243 244 245 247 249 251 253 256 259 262 265 268 270 272 274 276 278 279 279 280 280 279 277 275 275 275 275 273 272
220 221 221 221 222 223 224 225 227 228 229 231 232 233 233 234 235 235 235 236 235 235 235 235 235 235 234 234 233 233 233 233 234 235 236 237 238 239 241 242 244 245 246 247 249 252 254 258 261 264 266 269 271 273 275 277 278 279 279 280 279 278 275 274 274 274 272 271 270
220 221 221 222 223 224 225 227 228 229 230 231 231 232 233 234 234 234 234 234 235 235 234 234 234 234 234 233 233 233 233 234 234 235 236 238 239 240 241 243 244 246 247 248 250 253 255 259 262 265 267 269 271 272 274 276 278 279 279 279 278 277 275 274 274 273 271 269 269
220 221 222 223 223 224 225 227 228 230 231 231 231 231 232 233 233 233 233 233 234 234 234 233 233 233 233 232 232 233 233 234 235 236 237 238 240 241 242 243 245 246 247 249 251 253 256 259 262 265 267 269 271 272 274 276 278 279 280 280 279 277 276 275 274 274 272 271 271
221 222 222 223 223 224 225 226 228 229 230 231 230 231 232 233 233 233 233 233 234 233 232 232 231 231 231 232 232 232 233 234 235 236 238 239 240 242 243 244 246 246 248 249 251 254 257 259 262 264 266 268 270 272 274 276 278 279 280 280 280 279 277 276 276 275 273 273 273
222 223 223 223 223 224 224 225 227 227 228 229 230 231 233 234 234 234 234 233 233 232 232 231 230 231 231 232 232 233 233 234 235 236 238 239 241 243 244 245 246 247 248 250 251 254 257 260 262 263 265 267 269 271 274 277 279 280 280 279 280 280 278 277 276 275 274 275 275
222 223 223 224 224 224 224 225 226 227 227 228 230 232 233 234 235 234 233 233 232 232 232 231 231 231 231 232 233 233 234 235 235 236 238 240 241 243 244 246 246 247 248 250 252 254 257 259 260 262 264 266 268 271 275 278 279 280 279 279 280 281 280 280 279 278 277 276 276
220 222 222 223 223 224 224 225 226 227 228 229 230 232 233 234 234 234 234 233 233 232 231 231 231 230 231 231 232 233 234 235 236 237 238 239 241 243 244 246 247 248 249 250 252 254 256 258 259 260 262 265 268 272 275 278 279 279 279 279 279 281 282 283 282 280 279 277 276
221 222 222 222 223 223 224 224 225 226 227 228 230 231 232 233 233 234 234 233 232 231 231 231 230 230 230 231 232 233 234 235 236 237 238 239 241 243 245 246 247 248 250 251 252 254 255 257 258 260 263 265 269 272 275 277 278 279 279 280 281 281 282 284 284 282 280 278 278
221 222 223 223 223 223 223 223 224 225 226 227 228 230 231 232 233 233 233 232 231 231 231 231 230 230 231 231 232 233 234 235 236 237 238 240 242 243 245 246 248 249 250 251 252 254 255 256 258 261 264 266 269 272 275 277 278 280 281 281 282 282 283 284 285 284 282 280 279
222 222 222 223 223 222 222 222 223 224 225 226 227 229 230 231 232 232 232 231 230 230 230 230 230 230 231 231 232 233 234 235 236 237 239 240 242 244 245 247 248 249 250 252 252 253 254 256 259 262 265 267 270 272 275 277 279 280 281 282 282 282 283 284 286 286 284 282 280
221 221 222 222 222 222 222 222 223 224 225 225 227 228 229 230 231 231 231 230 230 230 229 229 229 230 230 231 232 233 234 235 236 237 239 241 242 244 245 247 248 249 250 252 253 253 254 256 258 261 265 268 271 273 275 277 279 279 280 281 281 282 283 285 286 286 285 283 281
221 221 221 222 221 221 221 222 222 223 224 225 226 228 228 229 230 230 230 230 230 229 229 229 229 229 230 231 232 233 234 235 236 237 239 240 242 244 245 247 248 249 251 252 253 254 255 256 258 261 265 268 271 274 275 277 279 280 280 281 282 283 284 285 286 286 285 284 283
220 220 221 220 221 221 221 221 222 223 224 225 226 227 227 228 229 229 229 229 229 228 228 228 228 229 229 230 231 232 233 234 235 237 238 240 241 243 245 246 248 249 251 252 254 254 256 257 259 262 265 268 271 274 276 278 279 280 281 282 283 284 284 285 286 286 286 286 284
220 220 220 220 220 221 221 221 222 223 224 225 226 226 227 227 228 228 228 228 228 227 227 228 228 228 229 229 230 230 232 233 234 236 238 239 241 243 245 247 248 250 252 253 255 256 256 258 260 262 265 269 272 274 276 278 280 281 282 283 284 284 285 286 287 287 287 287 286
219 219 219 219 220 221 222 222 222 223 224 225 225 226 227 227 227 227 228 228 227 227 227 227 228 228 228 228 229 230 231 232 234 236 238 240 242 244 246 248 249 251 253 254 255 256 257 258 260 263 266 269 272 274 277 279 281 282 283 284 285 286 287 287 288 289 289 288 287
219 219 219 220 221 222 223 223 223 223 224 225 225 226 226 227 227 227 227 227 228 227 227 227 228 228 228 229 229 230 231 232 234 236 239 241 243 245 246 248 250 252 253 254 256 257 258 259 261 263 266 269 272 274 277 279 281 283 284 285 286 287 288 290 291 292 292 290 288
220 219 220 221 222 223 223 224 224 224 225 225 225 225 226 226 227 227 226 227 228 228 227 227 227 228 228 229 229 230 231 233 235 237 239 241 243 245 246 248 250 252 254 255 256 257 258 259 261 264 266 270 272 275 277 279 281 283 284 286 287 288 290 292 293 294 293 291 290
221 221 222 223 223 223 224 225 225 225 225 225 225 225 226 226 226 227 227 227 228 227 227 227 227 228 228 229 229 230 231 233 235 237 239 241 243 245 247 248 250 252 254 255 255 256 257 259 262 264 267 270 272 275 277 279 281 283 285 287 289 290 292 294 294 293 292 291 290
223 223 224 224 224 225 225 226 226 225 225 225 225 225 225 226 226 227 228 228 227 227 226 227 227 228 229 229 229 230 231 232 235 237 240 242 243 245 247 249 251 252 254 254 255 256 258 260 262 264 267 270 272 275 277 279 282 284 287 289 290 292 294 294 293 292 292 291 290
224 225 224 224 225 225 226 226 226 225 225 224 225 225 225 225 226 227 227 227 226 226 226 227 228 229 229 230 230 230 231 232 234 237 240 242 244 245 247 249 251 252 253 254 255 256 258 260 262 265 267 270 272 275 277 280 283 285 287 289 291 293 293 293 291 290 290 289 288
225 225 225 225 225 225 225 225 225 225 224 224 224 224 225 225 226 226 225 225 225 225 226 227 228 229 230 230 231 231 231 232 234 236 239 241 243 245 247 248 250 251 253 254 255 257 259 261 264 267 269 272 274 277 280 283 284 285 286 287 289 291 291 291 290 288 286 285 283
225 225 225 225 225 225 225 225 224 224 224 224 224 224 224 224 225 224 224 224 224 225 226 226 227 228 229 229 230 230 231 232 234 235 237 240 242 244 246 247 249 251 252 254 255 257 259 261 264 268 272 275 278 281 282 283 283 282 282 283 285 287 287 287 286 284 282 281 280
226 225 225 225 225 225 225 224 224 224 224 224 224 224 224 224 224 223 223 223 224 225 225 226 226 227 227 228 228 229 230 231 233 235 237 239 241 243 245 247 249 250 252 253 255 257 258 259 259 262 267 271 274 275 275 275 276 276 277 279 282 284 284 283 282 281 281 282 283
226 225 225 226 225 225 225 225 225 225 224 224 223 223 223 223 223 223 223 223 223 224 224 224 225 225 225 226 226 227 229 230 232 234 236 238 241 243 245 247 249 251 252 254 256 257 257 257 256 257 260 263 266 268 269 269 271 273 275 277 280 282 282 280 280 281 284 286 288
226 225 225 225 225 225 226 226 225 224 224 223 223 223 223 223 222 222 222 222 222 222 222 222 223 223 223 224 225 227 228 230 231 234 236 239 241 243 246 248 250 252 253 255 257 257 256 256 257 258 260 262 264 267 269 270 272 274 275 276 278 280 281 281 283 286 289 290 291
226 225 225 224 224 225 225 224 224 224 224 223 223 223 222 221 221 221 221 221 220 220 220 220 221 221 220 221 224 226 228 229 231 233 236 238 241 244 246 249 251 253 254 256 257 257 256 256 258 260 261 263 266 268 271 272 273 274 275 275 277 279 281 284 288 290 291 291 291
226 225 224 223 224 224 224 224 224 224 223 223 222 221 221 220 220 220 220 219 219 219 220 220 219 218 218 220 223 224 226 228 230 233 235 238 241 244 247 250 252 254 255 256 257 256 256 257 259 261 262 264 266 269 271 272 273 273 274 276 278 281 283 287 290 291 290 289 289
226 224 224 223 224 224 224 224 224 223 222 221 221 220 220 219 219 219 219 219 220 221 221 220 218 218 219 221 222 223 225 227 229 232 235 238 241 244 248 251 253 255 257 257 257 257 256 258 260 262 263 265 267 268 270 272 273 274 276 278 280 282 285 288 290 290 289 288 288
225 224 224 224 224 224 224 224 223 222 221 220 219 219 219 219 220 220 220 220 220 219 218 218 217 218 219 220 221 222 224 226 229 232 236 239 242 245 248 252 254 256 258 258 258 257 257 258 260 262 264 266 268 269 271 272 274 276 278 279 281 283 286 288 289 289 288 287 287
225 224 224 224 224 224 224 223 222 221 220 219 219 219 219 219 220 220 220 220 219 217 216 216 216 217 218 218 219 221 223 226 229 233 236 239 242 245 249 252 254 256 257 258 258 257 257 258 260 262 264 266 268 270 271 273 275 277 278 280 281 283 285 286 287 288 287 286 286
225 224 224 224 224 224 223 222 221 220 219 218 218 218 219 219 219 219 219 218 218 217 217 217 217 218 219 219 219 220 222 225 228 232 236 239 241 245 249 252 254 256 257 258 257 256 257 259 260 261 264 267 270 271 272 274 275 277 278 280 281 282 283 285 286 287 286 286 286
225 224 224 224 224 223 222 221 220 218 217 217 217 218 218 218 218 218 218 218 217 216 216 217 218 219 219 219 220 221 222 224 227 231 235 238 241 244 248 252 255 256 257 258 257 256 256 258 260 262 264 268 270 271 273 274 275 276 278 278 279 280 282 285 287 287 287 288 288
226 225 224 224 224 222 221 219 218 217 216 216 216 217 217 217 218 218 217 216 215 214 214 215 215 215 215 216 218 220 222 223 226 230 234 237 240 243 247 251 255 257 257 257 257 257 256 258 259 262 264 267 269 271 272 274 275 276 276 277 277 278 281 285 287 288 289 291 293
229 227 225 224 223 222 220 219 217 216 216 216 217 216 216 216 216 216 216 213 211 211 211 212 211 212 213 214 217 219 222 224 226 229 233 237 239 242 246 251 255 257 257 257 257 257 256 256 258 261 264 267 268 271 272 274 275 275 276 276 276 278 281 285 287 289 291 294 295
232 229 226 225 223 222 220 218 217 216 216 217 217 217 216 215 214 214 212 210 209 208 208 209 209 211 213 215 217 219 221 222 225 228 232 236 239 242 246 250 254 257 258 257 257 256 256 255 257 259 262 264 267 270 272 273 275 275 276 277 278 279 282 285 287 290 292 295 297
234 231 228 226 224 223 221 219 218 218 218 218 218 217 216 215 213 212 211 209 208 208 207 207 208 211 213 215 216 217 219 222 224 228 231 235 238 242 245 250 254 257 258 258 257 256 256 255 257 258 260 262 265 268 271 273 274 275 276 276 278 280 282 283 286 289 293 296 298
234 231 228 226 225 224 222 221 221 220 220 219 218 216 215 214 214 212 211 209 208 208 208 208 209 211 212 212 213 214 217 221 224 228 231 235 238 241 244 249 253 257 258 257 257 256 255 254 255 256 259 261 264 267 269 271 273 274 274 274 276 278 280 283 286 291 295 297 298
232 229 227 226 225 224 223 222 223 222 222 220 219 218 217 216 214 212 210 208 207 207 207 208 209 209 209 209 210 212 215 219 224 228 231 234 237 239 243 247 251 255 257 257 256 255 253 252 253 255 258 260 263 265 267 269 270 270 271 272 274 276 279 283 289 294 296 297 297
Height
781 782 783 784 786 787 788 788 790 791 792 793 794 795 796 797 798 798 799 800 801 802 803 804 806 807 808 810 811 812 813 813 814 815 815 815 816 817 817 818 818 818 818 819 819 819 819 819 819 819 818 818 818 818 817 817 817 817 817 817 816 816 815 815 814 813 813 813 813
777 778 780 782 783 784 785 786 787 788 789 790 791 793 793 794 795 796 797 798 799 800 801 802 804 805 807 808 809 810 811 811 812 812 813 813 814 815 815 816 816 817 817 817 817 817 817 817 817 817 817 816 816 816 815 815 816 815 815 815 814 814 813 813 812 811 811 811 811
774 776 777 779 780 781 782 783 784 785 786 788 789 790 791 792 793 794 795 796 797 798 800 801 802 803 804 806 807 807 808 809 809 810 811 811 812 812 813 814 814 815 815 815 815 815 815 815 815 815 814 814 814 813 813 813 813 813 813 812 812 812 812 811 810 809 809 809 809
771 773 774 775 776 777 778 779 780 782 783 785 786 788 788 789 790 792 793 794 795 796 797 798 800 801 802 803 804 805 806 807 807 807 808 809 810 811 811 812 812 812 813 813 813 813 813 813 813 813 812 812 812 812 811 811 812 812 811 810 810 810 809 808 808 808 807 807 807
768 768 769 771 772 773 774 776 777 779 781 782 784 785 786 787 788 789 791 792 793 794 795 796 797 799 800 801 802 802 803 804 805 805 806 807 807 808 809 810 810 811 811 811 811 811 811 812 811 811 810 810 810 809 809 810 810 809 809 809 808 808 807 807 806 806 806 805 804
763 764 766 767 768 770 772 773 775 777 778 780 781 782 783 784 785 787 788 789 790 791 793 794 795 797 797 798 799 800 801 802 802 803 803 804 805 806 807 808 808 808 809 809 809 809 809 809 809 808 808 808 808 807 807 808 808 807 807 807 806 806 805 804 804 804 803 803 802
759 761 762 764 766 768 769 771 773 774 776 777 778 778 779 781 783 784 785 786 788 789 790 792 793 794 795 796 797 797 798 799 800 800 801 802 803 804 805 806 806 807 807 807 807 807 807 807 807 807 806 806 806 805 806 806 806 806 805 804 804 803 803 802 802 802 801 800 800
757 758 760 761 763 764 766 768 770 771 773 773 774 775 777 778 780 781 783 784 785 787 788 789 790 791 792 793 794 795 796 797 797 798 799 800 801 802 802 803 804 804 805 805 805 805 805 805 805 804 804 804 804 804 804 804 804 804 803 802 802 801 801 800 800 799 799 798 797
755 756 757 759 760 762 763 765 767 768 769 770 771 773 774 776 778 779 780 782 783 784 785 786 788 789 790 791 792 793 793 794 795 796 797 798 798 799 800 801 802 802 802 803 803 803 803 803 802 802 802 802 802 802 802 802 802 802 801 800 800 799 799 798 798 797 797 796 795
752 753 754 756 758 759 761 763 764 765 766 767 768 770 772 774 775 776 778 779 780 782 783 784 785 787 788 788 789 790 791 792 793 794 795 796 796 797 798 798 799 800 800 800 801 801 801 801 800 800 800 800 800 800 800 800 800 800 799 798 797 797 796 796 795 795 794 794 793
749 750 752 753 755 757 759 760 762 763 763 765 766 768 769 771 772 773 775 777 778 779 780 781 783 784 785 786 787 788 789 790 791 792 793 793 794 795 795 796 797 797 798 798 799 799 799 798 798 798 798 798 798 798 798 798 798 797 797 796 796 795 794 793 793 793 792 791 790
747 748 749 751 753 754 756 758 759 760 761 762 763 765 767 768 769 771 773 774 775 776 778 779 780 781 783 783 784 785 787 788 788 789 790 791 792 793 793 794 795 795 796 796 797 797 797 796 796 796 796 796 797 796 796 796 796 795 795 794 793 793 792 791 790 790 790 789 788
745 747 748 749 751 752 754 755 756 757 758 759 760 762 763 765 767 768 770 771 772 773 775 777 778 779 780 781 782 783 784 785 786 787 788 788 789 790 791 792 793 793 793 794 794 794 794 794 794 794 794 794 794 794 794 794 794 793 793 792 791 790 789 788 788 788 787 787 786
744 745 746 747 748 750 751 752 753 754 755 756 758 759 761 763 764 766 767 768 769 771 773 774 775 776 778 778 780 781 782 783 784 785 786 786 787 788 789 790 790 791 791 792 792 792 792 792 792 792 792 792 792 792 792 792 792 791 790 790 789 788 787 786 786 785 785 784 783
742 743 744 745 746 747 748 749 750 751 752 753 754 756 758 760 761 763 764 765 767 768 770 771 772 773 775 776 778 778 780 781 782 783 783 784 785 786 787 788 788 788 789 789 790 790 790 790 790 790 790 790 790 790 790 790 789 789 788 788 787 786 785 784 783 783 782 782 781
739 740 741 743 743 744 745 746 747 748 749 750 752 753 755 757 758 760 761 763 764 766 767 768 769 771 773 774 775 776 778 778 779 780 781 781 782 783 784 785 786 786 787 787 787 788 788 788 788 788 788 788 788 788 788 788 787 787 786 785 784 783 783 782 781 780 780 779 779
737 738 738 740 740 741 742 743 743 745 746 747 748 750 752 753 755 757 758 759 761 763 764 765 767 768 770 771 773 774 775 776 777 777 778 779 780 781 782 783 783 784 785 785 785 785 786 786 786 786 786 786 786 786 785 785 785 784 784 783 782 781 780 779 779 778 778 777 776
734 735 736 737 737 738 738 739 740 741 743 744 745 747 748 750 752 753 755 757 758 759 761 763 764 766 767 768 770 771 772 773 774 775 775 776 778 778 779 780 781 782 783 783 783 783 783 784 784 784 784 784 784 783 783 783 783 782 781 781 780 779 778 777 776 776 775 775 773
731 732 733 733 734 734 735 736 737 738 739 741 742 744 745 747 748 750 752 753 755 757 758 760 762 763 765 766 767 768 769 770 771 772 773 774 775 776 777 778 779 780 780 780 781 781 781 782 782 782 782 782 782 781 781 781 780 779 779 778 777 776 775 775 774 773 773 772 771
728 729 730 730 731 731 732 733 734 736 737 738 740 741 743 744 746 747 749 750 752 754 756 758 759 761 762 763 765 766 767 768 769 770 771 772 773 774 775 776 777 777 778 778 778 779 779 779 780 780 780 780 779 779 779 778 778 778 777 776 775 774 773 772 772 771 770 769 768
726 726 726 727 728 729 730 731 733 734 735 737 738 739 740 741 743 744 746 748 750 752 753 755 756 758 759 761 762 763 764 766 767 768 769 770 771 772 773 774 774 775 775 776 776 777 777 777 778 778 778 778 777 777 777 776 776 775 774 774 773 772 771 770 769 768 768 767 766
723 723 724 725 727 728 728 730 731 733 734 735 736 737 738 739 741 742 744 746 748 749 751 752 754 755 757 758 759 761 762 764 765 766 767 768 768 769 771 772 772 773 773 773 774 774 775 775 775 775 775 775 775 774 774 774 773 773 772 771 770 769 768 767 767 766 765 764 763
720 722 723 724 725 726 728 729 730 731 733 733 734 735 737 738 739 740 742 744 745 747 748 750 752 753 754 756 757 759 760 762 763 763 764 765 767 768 768 769 770 770 770 771 771 772 773 773 773 773 773 773 773 772 772 772 772 771 770 769 768 767 766 765 764 763 763 762 762
719 721 722 723 724 725 726 728 728 730 731 732 733 734 735 736 738 739 740 742 743 744 746 748 749 751 752 754 755 757 758 759 760 761 762 763 764 765 766 767 768 768 768 768 769 770 770 770 770 770 770 770 770 770 770 770 769 768 768 767 766 765 763 763 762 762 761 761 760
718 719 720 721 723 723 724 726 727 728 728 730 731 733 734 735 736 737 738 739 741 742 744 746 747 749 750 752 753 754 756 757 758 759 760 761 762 763 764 765 765 765 766 766 767 768 768 768 768 768 768 768 768 768 767 767 767 766 765 765 764 763 762 761 760 760 759 759 758
717 718 719 720 721 722 723 724 725 726 727 728 730 732 733 733 735 736 737 738 739 740 742 743 745 747 748 749 751 752 753 754 755 756 758 759 760 761 762 762 763 763 763 764 765 766 767 767 767 767 767 767 766 766 765 765 764 764 763 763 762 762 760 759 758 758 758 757 756
716 717 718 719 720 721 722 722 723 725 726 728 729 730 731 732 733 734 735 736 737 738 740 742 743 744 746 747 748 749 750 752 753 754 755 756 757 758 759 759 760 760 761 762 763 764 764 765 765 766 766 765 765 764 764 763 762 762 762 761 761 760 758 757 756 756 755 755 754
715 716 717 718 719 719 720 721 723 724 725 726 727 728 729 731 732 733 733 734 736 737 738 739 740 742 743 744 745 747 748 749 750 751 753 754 755 756 756 757 758 758 759 760 761 762 762 763 763 763 764 764 763 763 762 761 760 760 759 759 758 757 756 755 755 754 753 753 752
713 714 715 716 717 717 718 720 721 722 723 724 725 727 728 729 730 731 732 733 733 735 736 737 738 740 741 742 743 744 745 746 748 749 750 751 752 753 754 754 755 756 757 758 759 759 760 761 761 761 762 762 761 761 760 759 758 758 757 757 756 755 754 754 753 753 752 751 750
711 712 713 713 714 715 716 717 718 719 721 722 724 725 726 727 728 728 729 730 731 732 733 734 736 737 738 739 740 742 743 744 745 746 748 749 750 751 751 752 753 753 754 756 757 757 758 758 758 759 759 759 759 758 758 757 756 756 755 754 753 753 753 752 751 751 750 749 748
709 710 711 712 712 713 713 714 716 717 719 720 722 723 724 724 725 726 727 728 728 729 731 732 733 734 735 736 738 739 740 741 743 744 745 746 747 748 749 750 750 751 752 753 754 755 756 756 756 756 757 757 757 756 755 755 754 753 753 752 751 751 750 750 749 749 748 747 746
708 708 709 710 710 711 712 713 714 715 717 718 719 720 721 722 722 723 724 725 727 728 729 730 730 731 733 734 735 737 738 739 740 741 742 743 745 746 747 748 748 749 750 751 752 753 753 754 754 754 754 754 754 754 753 753 752 751 750 750 749 749 748 748 748 747 746 745 744
706 707 707 708 708 709 710 711 712 713 714 715 716 717 718 718 720 721 722 723 724 725 726 727 727 728 730 731 733 734 735 736 737 738 740 741 743 744 745 745 746 746 748 748 749 750 751 751 752 752 752 752 752 751 751 750 750 749 748 748 747 747 747 746 746 745 744 743 743
704 704 705 705 706 707 708 709 710 711 712 712 713 713 714 716 717 718 719 720 721 722 723 723 724 725 726 728 729 731 732 733 735 736 738 739 740 741 742 743 743 744 745 746 747 748 748 749 749 749 750 750 749 749 748 748 747 747 746 746 745 745 745 744 744 743 742 742 741
702 702 703 703 704 704 705 706 707 708 708 709 709 709 710 712 713 713 715 716 718 719 720 721 722 723 724 726 727 728 730 731 732 734 735 736 738 739 740 740 741 742 743 744 745 746 746 747 747 747 748 748 747 747 746 746 745 744 744 743 743 743 743 742 742 741 740 740 739
699 700 700 701 701 702 702 703 703 704 704 704 704 705 706 707 708 709 711 713 715 716 717 718 720 721 722 723 725 726 727 728 730 731 733 734 735 736 737 738 738 739 740 742 743 743 744 744 745 745 745 745 745 744 744 743 743 742 742 741 741 741 741 740 740 739 739 738 738
697 697 698 698 698 698 699 699 700 700 700 699 699 700 701 702 703 705 707 709 711 713 713 715 716 718 719 720 721 723 724 725 727 728 730 731 733 733 734 735 736 737 738 739 740 741 741 742 742 743 743 743 742 742 741 741 740 740 739 739 739 738 738 738 738 737 737 736 736
695 695 695 695 695 695 695 695 696 695 695 694 695 695 697 698 699 701 703 705 707 708 709 711 712 713 715 716 718 720 721 723 724 726 727 728 730 731 732 733 733 734 735 737 738 738 739 739 740 741 741 741 740 740 739 739 738 738 737 737 737 736 736 736 736 735 735 734 734
691 691 692 692 692 692 692 692 691 690 690 690 692 693 694 695 696 697 699 701 702 704 705 707 708 710 712 714 716 718 719 720 722 723 725 726 727 728 729 730 731 731 733 734 735 736 736 737 738 738 738 738 738 738 737 737 736 736 735 735 734 734 734 734 734 733 733 732 732
685 686 687 687 687 688 688 688 687 687 688 689 690 691 692 693 694 696 697 698 700 701 703 704 706 708 710 712 713 715 716 718 719 721 722 723 725 726 727 728 728 729 730 731 732 733 734 734 735 736 736 736 736 735 735 735 734 734 733 733 733 732 732 732 732 731 731 730 730
677 679 680 681 682 683 684 684 684 685 687 688 689 690 691 693 694 696 697 698 699 700 701 703 704 706 708 710 711 713 714 715 717 718 719 721 723 724 725 726 726 727 727 728 730 731 732 732 733 733 734 734 734 733 733 733 732 732 731 731 731 730 730 729 729 729 729 728 728